Regional Weather Roundup
Issued by NWS

Home | Current Version | Previous Version | Text Only | Print | Product List | Glossary Off
Versions: 1 2 3 4 5 6 7 8 9 10 11 12 13 14 15 16 17 18 19 20 21 22 23 24 25 26 27 28 29 30 31 32 33 34 35 36 37 38 39 40 41 42 43 44 45 46 47 48 49 50

000
ASUS43 KOAX 190502
RWRNE

WEATHER ROUNDUP FOR NEBRASKA
NATIONAL WEATHER SERVICE OMAHA NE
1200 AM CDT THU APR 19 2018

NOTES: SATELLITE DATA IS BEING USED TO AUGMENT CLOUD COVER ABOVE
       12000 FEET.
       "FAIR" INDICATES FEW OR NO CLOUDS BELOW 12,000 FEET WITH NO
       SIGNIFICANT WEATHER AND/OR OBSTRUCTIONS TO VISIBILITY.


NEZ001>004-019>022-054>056-190600-
NEBRASKA PANHANDLE

CITY           SKY/WX    TMP DP  RH WIND       PRES   REMARKS
SCOTTSBLUFF    CLEAR     35  26  69 NE7       30.27S WCI  29
ALLIANCE       CLEAR     28  25  88 E5        30.27S WCI  23
CHADRON        PTCLDY    31  27  85 CALM      30.29R
GORDON         FAIR      30  28  94 CALM      30.29R
KIMBALL        CLEAR     30  21  70 CALM      30.28S
SIDNEY         CLEAR     26  20  77 CALM      30.29R
$$

NEZ057>060-069>072-079>082-190600-
SOUTHWEST NEBRASKA

CITY           SKY/WX    TMP DP  RH WIND       PRES   REMARKS
NORTH PLATTE   CLEAR     32  27  81 N3        30.30R
IMPERIAL       CLEAR     36  28  73 E3        30.30R
LEXINGTON      CLEAR     33  28  82 CALM      30.30R
MCCOOK         CLEAR     38  31  76 CALM      30.30R
OGALLALA       CLEAR     37  31  82 CALM      30.31R
$$

NEZ005>010-023>029-035>040-094-190600-
NORTH CENTRAL NEBRASKA

CITY           SKY/WX    TMP DP  RH WIND       PRES   REMARKS
VALENTINE      CLEAR     30  28  92 NW6       30.30R WCI  24
AINSWORTH      CLEAR     32  31  96 NW3       30.29R
BROKEN BOW     CLEAR     33  28  81 CALM      30.29R
O`NEILL        CLEAR     35  33  94 NW9       30.28S WCI  27
ORD            CLEAR     32  30  92 NW6       30.28R WCI  26
THEDFORD       CLEAR     32  31  95 W6        30.31R WCI  26
$$

NEZ041-046>049-061>064-073>077-083>087-190600-
SOUTH CENTRAL NEBRASKA

CITY           SKY/WX    TMP DP  RH WIND       PRES   REMARKS
GRAND ISLAND   CLEAR     35  30  82 NW10      30.28S WCI  27
AURORA         CLEAR     32  31  96 NW10      30.27S WCI  24
HASTINGS       CLEAR     32  28  85 NW10      30.28S WCI  24
HEBRON         CLEAR     32  28  82 NW5       30.28R WCI  28
HOLDREGE       CLEAR     35  32  88 N6        30.29R WCI  30
KEARNEY        CLEAR     33  28  81 N8        30.30R WCI  26
YORK             N/A     32  32 100 NW12      30.26S WCI  23
$$

NEZ011>018-030>034-042>045-190600-
NORTHEAST NEBRASKA

CITY           SKY/WX    TMP DP  RH WIND       PRES   REMARKS
NORFOLK        MOCLDY    36  33  89 N13       30.26R WCI  27
ALBION         CLOUDY    36  33  89 NW7       30.27R WCI  31
BLAIR          CLOUDY    36  32  86 N15       30.23R WCI  26
FREMONT        CLOUDY    36  33  90 NW8       30.27R WCI  30
TEKAMAH        PTCLDY    32  30  92 N8        30.26R WCI  25
WAYNE          MOCLDY    34  33  96 NW7       30.26R WCI  28
$$

NEZ050>053-065>068-078-088>093-190600-
SOUTHEAST NEBRASKA

CITY           SKY/WX    TMP DP  RH WIND       PRES   REMARKS
LINCOLN        CLOUDY    41  32  70 NW15      30.26R
OMAHA EPPLEY   CLOUDY    36  30  79 N10       30.24R WCI  28
BEATRICE       CLOUDY    35  29  79 W9        30.26R WCI  27
FALLS CITY     CLOUDY    37  28  70 W10       30.23R WCI  30
NEBRASKA CITY  CLOUDY    38  37  94 NW13      30.23S WCI  30
PLATTSMOUTH    CLOUDY    38  34  85 NW10G17   30.23R WCI  31
$$

NEZ044-045-051>053-067-190600-
OMAHA AREA

CITY           SKY/WX    TMP DP  RH WIND       PRES   REMARKS
OMAHA EPPLEY   CLOUDY    36  30  79 N10       30.24R WCI  28
BLAIR          CLOUDY    36  32  86 N15       30.23R WCI  26
FREMONT        CLOUDY    36  33  90 NW8       30.27R WCI  30
MILLARD        CLOUDY    39  34  82 NW7G16    30.25R WCI  34
OFFUTT AFB     CLOUDY    38  30  75 N13G20    30.24R WCI  30
PLATTSMOUTH    CLOUDY    38  34  85 NW10G17   30.23R WCI  31
WAHOO          MOCLDY    38  32  77 N18       30.25R WCI  29
$$




USA.gov is the U.S. government's official web portal to all federal, state and local government web resources and services.